[[{"header":{"parameterUnit":"m.s-1","parameterCategory":1,"la1":30.2991,"la2":30.254,"lo1":-89.0895,"lo2":-89.0444,"dy":0.0017,"dx":0.0017,"nx":28,"ny":28,"refTime":"2024-03-29T03:00:00:Z","depth":0,"parameterNumber":2,"parameterNumberName":"U-component_of_WINDS"},"data":[0,0,0,0,0,0,0,0,0,0,0,0,0,0,0,0,0,0,0,0,0,0,0,0,0,0,0,0,0,0,0,0,0,0,0,0,0,0,0,0,0,0,0,0,0,0,0,0,0,0,0,0,0,0,0,0,0,0,-1.1243,-1.1244,0,-1.1299,-1.1299,-1.13,-1.1318,-1.1318,-1.1317,-1.1317,-1.1374,-1.1376,-1.1378,0,0,0,0,0,0,0,0,0,0,0,0,0,-1.1152,-1.1154,-1.1243,-1.1244,-1.1244,-1.1298,-1.1299,-1.13,-1.1318,-1.1318,-1.1317,-1.1317,-1.1374,-1.1376,-1.1378,0,0,0,0,0,0,0,0,0,0,0,0,0,-1.1198,-1.1154,-1.1243,-1.126,-1.1262,-1.1298,-1.1299,-1.13,-1.1318,-1.1318,-1.1317,-1.1317,-1.1373,-1.1375,-1.1378,-1.1402,0,0,-1.1386,-1.1387,0,0,0,0,0,0,0,0,-1.1195,-1.1201,-1.1257,-1.1259,-1.1261,-1.1301,-1.1288,-1.1334,-1.1318,-1.1297,-1.1317,-1.1317,-1.135,-1.1354,-1.1366,-1.1404,-1.1407,-1.1386,-1.1388,-1.1389,-1.139,0,0,0,0,0,0,0,-1.1192,-1.1199,-1.1265,-1.1257,-1.126,-1.1265,-1.1271,-1.1297,-1.1325,-1.1298,-1.13,-1.1306,-1.1351,-1.1363,-1.1367,-1.1408,-1.1386,-1.1388,-1.139,-1.1391,-1.1468,-1.1469,0,0,0,0,0,0,-1.1186,-1.1196,-1.1263,-1.1267,-1.1227,-1.1267,-1.1273,-1.1288,-1.1324,-1.133,-1.1306,-1.1307,-1.1359,-1.1364,-1.1369,-1.1399,-1.1389,-1.1391,-1.1393,-1.1468,-1.1468,-1.1469,0,0,0,0,0,0,-1.1184,-1.1192,-1.1261,-1.1232,-1.1241,-1.1268,-1.1285,-1.129,-1.1302,-1.1331,-1.1336,-1.1314,-1.1359,-1.1366,-1.1393,-1.1401,-1.1393,-1.1395,-1.1467,-1.1468,-1.1469,-1.1459,0,0,0,0,0,0,-1.1182,-1.1191,-1.12,-1.1232,-1.1242,-1.1284,-1.1286,-1.1291,-1.1306,-1.1307,-1.1339,-1.1343,-1.1359,-1.1389,-1.1396,-1.1405,-1.1397,-1.1467,-1.1467,-1.1468,-1.1459,-1.146,-1.146,0,0,0,0,0,-1.1178,-1.1196,-1.1201,-1.1209,-1.1255,-1.1285,-1.1291,-1.1308,-1.1307,-1.1316,-1.1335,-1.1342,-1.14,-1.1392,-1.14,-1.141,-1.1466,-1.1467,-1.1468,-1.1459,-1.146,-1.146,0,0,0,0,0,0,-1.1165,-1.12,-1.1206,-1.1234,-1.1256,-1.1287,-1.13,-1.1308,-1.1331,-1.1331,-1.1352,-1.1359,-1.1385,-1.14,-1.1391,-1.1434,-1.1433,-1.1436,-1.1423,-1.1424,-1.1425,-1.1421,-1.1399,0,0,0,0,0,-1.1165,-1.1186,-1.1216,-1.1238,-1.1249,-1.1272,-1.1286,-1.1298,-1.1321,-1.1331,-1.1351,-1.1374,-1.1397,-1.1411,-1.1434,-1.1461,-1.1468,-1.1472,-1.1472,-1.1473,-1.1475,-1.149,-1.1492,-1.1472,-1.1472,-1.1472,0,0,-1.1166,-1.1188,-1.12,-1.1236,-1.1254,-1.1276,-1.128,-1.1303,-1.1319,-1.1334,-1.1361,-1.1377,-1.1404,-1.1431,-1.1445,-1.1445,-1.1482,-1.1474,-1.1474,-1.1476,-1.1491,-1.1493,-1.1495,-1.1473,-1.1473,-1.1473,0,0,-1.1178,-1.1197,-1.1217,-1.1235,-1.1263,-1.1279,-1.1283,-1.1313,-1.1324,-1.1352,-1.1364,-1.1384,-1.1423,-1.1441,-1.1456,-1.1475,-1.1482,-1.1482,-1.1484,-1.1499,-1.1501,-1.1502,-1.1509,-1.1511,-1.1483,-1.1483,-1.1483,0,-1.1176,-1.1209,-1.1227,-1.1249,-1.1264,-1.1279,-1.1299,-1.1316,-1.135,-1.136,-1.136,-1.1409,-1.1428,-1.146,-1.1465,-1.1476,-1.1482,-1.1478,-1.1499,-1.1501,-1.1502,-1.1509,-1.1511,-1.1483,-1.1483,-1.1483,-1.1483,0,-1.1204,-1.1227,-1.124,-1.1272,-1.1288,-1.131,-1.1331,-1.1346,-1.1356,-1.1372,-1.14,-1.1423,-1.145,-1.1459,-1.1469,-1.1492,-1.1492,-1.1495,-1.1494,-1.1503,-1.151,-1.1513,-1.1483,-1.1483,-1.1483,-1.1483,0,0,-1.121,-1.1251,-1.1256,-1.127,-1.1301,-1.1319,-1.1341,-1.1368,-1.138,-1.1403,-1.1422,-1.1454,-1.1458,-1.1474,-1.1486,-1.1499,-1.1512,-1.1501,-1.1502,-1.1502,-1.1539,-1.1536,-1.1539,-1.1518,-1.1518,-1.1519,-1.1537,0,-1.1226,-1.1266,-1.1282,-1.1314,-1.1335,-1.1349,-1.1368,-1.1389,-1.1404,-1.1424,-1.1441,-1.1464,-1.1466,-1.1476,-1.149,-1.1508,-1.152,-1.1507,-1.1535,-1.1536,-1.1528,-1.1542,-1.154,-1.1556,-1.154,-1.154,-1.154,0,-1.1251,-1.1273,-1.1307,-1.1335,-1.1345,-1.1361,-1.1387,-1.1406,-1.143,-1.144,-1.1459,-1.147,-1.1493,-1.1491,-1.1524,-1.1514,-1.1527,-1.1537,-1.1539,-1.1542,-1.1539,-1.1546,-1.1561,-1.1564,-1.1545,-1.1544,-1.1544,0,-1.1251,-1.129,-1.1315,-1.1327,-1.1361,-1.1372,-1.1387,-1.1411,-1.1426,-1.1448,-1.1458,-1.1483,-1.1497,-1.1516,-1.1534,-1.1531,-1.1565,-1.1564,-1.1574,-1.1573,-1.158,-1.1579,-1.1597,-1.1588,-1.1588,-1.1588,-1.1588,0,-1.1268,-1.1288,-1.1316,-1.1331,-1.1354,-1.1373,-1.1395,-1.1411,-1.1432,-1.145,-1.1464,-1.1481,-1.1504,-1.1524,-1.1538,-1.1563,-1.1569,-1.1578,-1.1581,-1.1576,-1.1575,-1.1585,-1.1584,-1.1589,-1.1589,-1.1589,-1.1589,0,-1.1273,-1.1292,-1.132,-1.135,-1.1358,-1.1373,-1.1398,-1.1414,-1.1429,-1.1453,-1.1459,-1.1484,-1.1508,-1.1528,-1.156,-1.157,-1.1595,-1.1599,-1.1587,-1.1589,-1.1597,-1.1596,-1.1622,-1.1626,-1.1614,-1.1614,-1.1614,0,-1.1282,-1.1298,-1.1329,-1.1342,-1.1356,-1.1378,-1.1393,-1.1412,-1.1428,-1.1456,-1.1468,-1.1493,-1.1515,-1.1553,-1.1574,-1.1598,-1.1603,-1.161,-1.1607,-1.1601,-1.1603,-1.1602,-1.1603,-1.1611,-1.1611,-1.1611,-1.1611,0,-1.1296,-1.1305,-1.1326,-1.1351,-1.1369,-1.1389,-1.141,-1.142,-1.1443,-1.146,-1.1484,-1.1501,-1.1533,-1.1558,-1.1585,-1.16,-1.1609,-1.1612,-1.1615,-1.161,-1.1602,-1.1607,-1.1588,-1.1611,-1.1611,-1.1611,-1.1611,-1.1611,-1.1304,-1.1318,-1.1342,-1.1365,-1.1383,-1.1402,-1.1418,-1.1435,-1.1456,-1.1484,-1.1494,-1.1519,-1.1543,-1.158,-1.1595,-1.1615,-1.1616,-1.1621,-1.1622,-1.1623,-1.1623,-1.1599,-1.162,-1.162,-1.162,-1.162,-1.162,0,-1.1319,-1.1335,-1.1356,-1.1384,-1.1402,-1.1409,-1.1432,-1.1447,-1.1469,-1.149,-1.1511,-1.1539,-1.1564,-1.1586,-1.1611,-1.1623,-1.1628,-1.1629,-1.1628,-1.1632,-1.162,-1.1615,-1.1625,-1.1625,-1.1625,-1.1625,-1.1625,-1.1625,-1.1329,-1.1354,-1.1365,-1.1398,-1.1414,-1.1439,-1.1452,-1.1469,-1.1486,-1.1517,-1.1537,-1.1551,-1.1573,-1.16,-1.1622,-1.1628,-1.1637,-1.1637,-1.1644,-1.1633,-1.1632,-1.1632,-1.1627,-1.1639,-1.1639,-1.1653,-1.1654,-1.1654]},{"header":{"parameterUnit":"m.s-1","parameterCategory":1,"la1":30.2991,"la2":30.254,"lo1":-89.0895,"lo2":-89.0444,"dy":0.0017,"dx":0.0017,"nx":28,"ny":28,"refTime":"2024-03-29T03:00:00:Z","depth":0,"parameterNumber":3,"parameterNumberName":"V-component_of_WINDS"},"data":[0,0,0,0,0,0,0,0,0,0,0,0,0,0,0,0,0,0,0,0,0,0,0,0,0,0,0,0,0,0,0,0,0,0,0,0,0,0,0,0,0,0,0,0,0,0,0,0,0,0,0,0,0,0,0,0,0,0,3.87,3.8701,0,3.8813,3.8814,3.8815,3.88,3.8798,3.8797,3.8795,3.8908,3.8913,3.8918,0,0,0,0,0,0,0,0,0,0,0,0,0,3.8469,3.8474,3.87,3.8701,3.8702,3.8812,3.8814,3.8815,3.8801,3.8798,3.8796,3.8794,3.8907,3.8912,3.8918,0,0,0,0,0,0,0,0,0,0,0,0,0,3.8575,3.8475,3.8699,3.8708,3.871,3.8812,3.8814,3.8816,3.8801,3.8798,3.8796,3.8793,3.8905,3.8912,3.8919,3.9018,0,0,3.8941,3.8944,0,0,0,0,0,0,0,0,3.8569,3.8583,3.8706,3.8708,3.871,3.879,3.8774,3.8884,3.8802,3.8767,3.8795,3.8792,3.8871,3.8881,3.8908,3.9023,3.9028,3.8941,3.8946,3.8949,3.8951,0,0,0,0,0,0,0,3.8561,3.8578,3.8744,3.8707,3.871,3.8706,3.8718,3.8795,3.8833,3.8769,3.8769,3.8782,3.8872,3.8901,3.891,3.903,3.8941,3.8947,3.8952,3.8954,3.9233,3.9236,0,0,0,0,0,0,3.8552,3.8572,3.8741,3.8748,3.8631,3.8713,3.8726,3.8767,3.8832,3.8839,3.8785,3.8781,3.889,3.8902,3.8914,3.9035,3.8948,3.8955,3.8959,3.923,3.9233,3.9237,0,0,0,0,0,0,3.8547,3.8567,3.8736,3.866,3.8681,3.8719,3.8766,3.8771,3.88,3.8843,3.885,3.8808,3.8889,3.8904,3.8993,3.9039,3.8958,3.8965,3.9226,3.9231,3.9235,3.9277,0,0,0,0,0,0,3.8541,3.8566,3.8604,3.8661,3.8685,3.8813,3.8769,3.8775,3.8812,3.8809,3.8867,3.8874,3.8888,3.8982,3.9,3.9047,3.897,3.9222,3.9228,3.9234,3.9271,3.9282,3.9292,0,0,0,0,0,3.8532,3.8611,3.8606,3.8627,3.8734,3.8816,3.883,3.8845,3.8816,3.8855,3.8883,3.8872,3.9031,3.8991,3.9011,3.9061,3.9219,3.9226,3.9233,3.9267,3.928,3.9291,0,0,0,0,0,0,3.8558,3.8618,3.8614,3.8713,3.876,3.8813,3.8863,3.8858,3.8913,3.8908,3.8923,3.8936,3.9025,3.9052,3.9007,3.916,3.9121,3.9132,3.914,3.9153,3.9163,3.9154,3.8976,0,0,0,0,0,3.8575,3.8637,3.8686,3.8769,3.8793,3.8824,3.886,3.8868,3.8916,3.8935,3.897,3.9016,3.9077,3.9116,3.9174,3.9275,3.9287,3.9319,3.9329,3.9337,3.9347,3.9402,3.9417,3.926,3.926,3.926,0,0,3.8612,3.8652,3.869,3.8776,3.8812,3.8876,3.884,3.8909,3.8956,3.8945,3.9031,3.9058,3.9111,3.9206,3.925,3.9231,3.9393,3.9346,3.9353,3.9358,3.9411,3.9426,3.9439,3.9265,3.9264,3.9263,0,0,3.871,3.8747,3.882,3.8858,3.8914,3.8934,3.8952,3.9007,3.9024,3.9111,3.9104,3.916,3.9264,3.9302,3.9335,3.9448,3.944,3.9467,3.9519,3.9573,3.9585,3.9596,3.9636,3.9651,3.9476,3.9476,3.9476,0,3.8747,3.8843,3.8858,3.8928,3.8965,3.8959,3.9033,3.9069,3.9141,3.9167,3.9145,3.9276,3.9311,3.9415,3.9443,3.947,3.949,3.946,3.9582,3.9594,3.9604,3.9643,3.9658,3.9479,3.9479,3.9478,3.9478,0,3.8887,3.8953,3.9005,3.9076,3.9119,3.919,3.9216,3.9258,3.9261,3.9284,3.9371,3.9414,3.948,3.9506,3.951,3.961,3.9597,3.9579,3.9539,3.9622,3.9658,3.9673,3.9483,3.9482,3.9481,3.948,0,0,3.9004,3.9082,3.9101,3.9133,3.9195,3.9246,3.9317,3.9383,3.9419,3.9469,3.9528,3.9616,3.96,3.9637,3.9646,3.9693,3.978,3.9669,3.967,3.9688,3.9893,3.9906,3.9923,3.9775,3.9778,3.978,3.9889,0,3.9108,3.9234,3.925,3.9361,3.9423,3.9418,3.948,3.9524,3.9547,3.9602,3.9626,3.9689,3.9662,3.9685,3.9731,3.9759,3.9821,3.9752,3.983,3.9832,3.9817,3.9942,3.9957,4.0058,3.9903,3.9905,3.9907,0,3.9247,3.9301,3.9419,3.9473,3.9499,3.9554,3.9616,3.9669,3.9719,3.9732,3.9774,3.9776,3.9849,3.9807,3.9907,3.9859,3.9892,3.9911,3.9915,3.9923,3.9875,3.9953,4.009,4.0105,3.993,3.9928,3.9926,0,3.932,3.9423,3.9507,3.9535,3.9599,3.9638,3.9667,3.9714,3.9753,3.9806,3.9832,3.9893,3.9926,3.9973,3.9992,3.9959,4.0091,4.005,4.0103,4.0103,4.0131,4.0129,4.0275,4.0153,4.0152,4.0152,4.0152,0,3.9435,3.9507,3.9541,3.9593,3.9674,3.9691,3.977,3.9797,3.9839,3.9895,3.9895,3.9948,3.9969,4.0025,4.004,4.0121,4.0136,4.0148,4.0151,4.0148,4.0147,4.017,4.0164,4.0156,4.0155,4.0154,4.0154,0,3.9531,3.9557,3.9648,3.9702,3.9717,3.9774,3.982,3.987,3.9892,3.9963,3.9981,4.0015,4.0082,4.0105,4.0185,4.0195,4.0288,4.0286,4.0272,4.0272,4.0325,4.0319,4.049,4.0513,4.0376,4.0377,4.0378,0,3.9603,3.9658,3.9718,3.9756,3.9787,3.9848,3.9887,3.9906,3.9947,4.0008,4.0051,4.0116,4.017,4.0276,4.0308,4.0369,4.0368,4.0423,4.0377,4.0372,4.0368,4.0365,4.0371,4.0432,4.0433,4.0434,4.0435,0,3.9727,3.9737,3.9794,3.9856,3.9904,3.9953,4.0001,4.0032,4.0058,4.0104,4.0172,4.0214,4.0296,4.0361,4.0424,4.0452,4.0448,4.045,4.0465,4.0463,4.0453,4.0459,4.0295,4.0446,4.0445,4.0444,4.0443,4.0443,3.9813,3.9863,3.9912,3.9976,4.0014,4.0059,4.0109,4.0137,4.0194,4.0263,4.027,4.0343,4.0392,4.0476,4.0508,4.0565,4.0549,4.0572,4.0578,4.0583,4.0587,4.0444,4.0576,4.0576,4.0576,4.0575,4.0575,0,3.9938,3.997,4.0028,4.0095,4.0146,4.0138,4.0191,4.0233,4.0297,4.0343,4.0396,4.0474,4.0538,4.0575,4.0638,4.0677,4.0677,4.0693,4.069,4.0697,4.0597,4.0577,4.0692,4.0692,4.0692,4.0692,4.0692,4.0692,4.0008,4.0091,4.0107,4.0209,4.024,4.0312,4.0343,4.0384,4.0421,4.0508,4.0561,4.0585,4.0627,4.0694,4.0752,4.0761,4.0784,4.0802,4.081,4.0716,4.0704,4.0692,4.0674,4.0807,4.0807,4.0905,4.0906,4.0907]}]]